Progress Software Pre-Tax Profit Margin 2006-2020 | PRGS

Progress Software pre-tax profit margin from 2006 to 2020. Pre-tax profit margin can be defined as earnings before taxes as a portion of total revenue.
Progress Software Pre-Tax Profit Margin Historical Data
Date TTM Revenue TTM Pre-Tax Income Pre-Tax Margin
2020-02-29 $0.43B $0.04B 9.45%
2019-11-30 $0.41B $0.03B 6.52%
2019-08-31 $0.40B $0.05B 11.65%
2019-05-31 $0.38B $0.05B 13.39%
2019-02-28 $0.37B $0.06B 14.97%
2018-11-30 $0.38B $0.06B 16.09%
2018-08-31 $0.39B $0.07B 17.22%
2018-05-31 $0.39B $0.07B 17.56%
2018-02-28 $0.39B $0.07B 18.07%
2017-11-30 $0.39B $0.05B 13.62%
2017-08-31 $0.40B $-0.03B -6.27%
2017-05-31 $0.40B $-0.03B -7.92%
2017-02-28 $0.41B $-0.04B -9.83%
2016-11-30 $0.41B $-0.04B -8.64%
2016-08-31 $0.40B $0.05B 11.75%
2016-05-31 $0.39B $0.04B 10.69%
2016-02-29 $0.39B $0.03B 6.99%
2015-11-30 $0.38B $0.01B 3.17%
2015-08-31 $0.36B $0.02B 5.51%
2015-05-31 $0.35B $0.03B 8.65%
2015-02-28 $0.34B $0.05B 15.93%
2014-11-30 $0.33B $0.08B 23.42%
2014-08-31 $0.33B $0.08B 23.01%
2014-05-31 $0.33B $0.07B 20.92%
2014-02-28 $0.33B $0.06B 19.02%
2013-11-30 $0.34B $0.06B 18.81%
2013-08-31 $0.33B $0.06B 19.33%
2013-05-31 $0.32B $0.07B 20.19%
2013-02-28 $0.31B $0.06B 20.38%
2012-11-30 $0.32B $0.07B 21.45%
2012-08-31 $0.33B $0.07B 22.19%
2012-05-31 $0.38B $0.08B 19.74%
2012-02-29 $0.44B $0.09B 20.18%
2011-11-30 $0.49B $0.10B 20.08%
2011-08-31 $0.54B $0.10B 18.74%
2011-05-31 $0.54B $0.10B 18.78%
2011-02-28 $0.54B $0.10B 19.03%
2010-11-30 $0.53B $0.07B 13.58%
2010-08-31 $0.52B $0.07B 12.45%
2010-05-31 $0.51B $0.06B 11.52%
2010-02-28 $0.50B $0.04B 8.58%
2009-11-30 $0.49B $0.05B 10.32%
2009-08-31 $0.50B $0.04B 7.26%
2009-05-31 $0.50B $0.05B 9.52%
2009-02-28 $0.52B $0.06B 11.65%
2008-11-30 $0.52B $0.07B 14.34%
2008-08-31 $0.51B $0.08B 16.15%
2008-05-31 $0.51B $0.08B 16.11%
2008-02-29 $0.50B $0.07B 14.37%
2007-11-30 $0.49B $0.07B 13.16%
2007-08-31 $0.48B $0.06B 11.90%
2007-05-31 $0.47B $0.05B 10.90%
2007-02-28 $0.46B $0.05B 10.92%
2006-11-30 $0.45B $0.05B 10.29%
2006-08-31 $0.43B $0.05B 12.47%
2006-05-31 $0.42B $0.05B 12.59%
2006-02-28 $0.41B $0.06B 14.11%
2005-11-30 $0.41B $0.06B 15.56%
Sector Industry Market Cap Revenue
Computer and Technology Computer Software $1.580B $0.413B
Progress offers the leading platform for developing and deploying mission-critical business applications. Progress empowers enterprises and ISVs to build and deliver cognitive-first applications that harness big data to derive business insights and competitive advantage. Progress offers leading technologies for easily building powerful user interfaces across any type of device, a reliable, scalable and secure backend platform to deploy modern applications, leading data connectivity to all sources, and award-winning predictive analytics that brings the power of machine learning to any organization.
Stock Name Country Market Cap PE Ratio
Microsoft (MSFT) United States $1000.000B 30.28
Oracle (ORCL) United States $160.076B 14.63
Adobe (ADBE) United States $148.843B 43.70
SAP SE (SAP) Germany $133.480B 26.07
Salesforce, Inc (CRM) United States $129.838B 135.58
Intuit (INTU) United States $62.455B 40.71
VMware (VMW) United States $51.645B 27.76
Dassault Systemes SA (DASTY) France $34.420B 37.79
Autodesk (ADSK) United States $32.643B 105.46
ANSYS (ANSS) United States $20.589B 44.05
Synopsys (SNPS) United States $20.399B 43.29
Cadence Design Systems (CDNS) United States $19.346B 19.56
Citrix Systems (CTXS) United States $17.840B 35.56
SS&C Technologies Holdings (SSNC) United States $11.574B 12.51
Open Text (OTEX) Canada $9.730B 29.60
PTC (PTC) United States $6.850B 43.29
Trend Micro (TMICY) Japan $6.362B 24.61
Aspen Technology (AZPN) United States $6.245B 25.12
Pegasystems (PEGA) United States $5.669B 0.00
Nuance Communications (NUAN) United States $4.693B 20.48
Konami (KNMCY) Japan $4.045B 14.04
Manhattan Associates (MANH) United States $3.239B 38.62
Descartes Systems Group (DSGX) Canada $2.998B 82.86
ACI Worldwide (ACIW) United States $2.805B 42.37
Verint Systems (VRNT) United States $2.579B 15.89
Blackbaud (BLKB) United States $2.339B 37.77
CommVault Systems (CVLT) United States $1.844B 87.91
Cornerstone OnDemand (CSOD) United States $1.814B 50.17
Bottomline Technologies (EPAY) United States $1.545B 74.70
PROS Holdings (PRO) United States $1.226B 0.00
MicroStrategy (MSTR) United States $1.189B 97.28
Sapiens (SPNS) Israel $1.020B 26.80
Simulations Plus (SLP) United States $0.598B 67.78
QAD (QADB) United States $0.571B 0.00
American Software (AMSWA) United States $0.463B 46.77
Magic Software Enterprises (MGIC) Israel $0.421B 14.85
Rosetta Stone (RST) United States $0.369B 0.00
Avid Technology (AVID) United States $0.258B 13.91
Icad Inc (ICAD) United States $0.171B 0.00
Smith Micro Software (SMSI) United States $0.162B 15.77
GlobalSCAPE (GSB) United States $0.145B 10.60
OptimizeRx (OPRX) United States $0.124B 0.00
ServiceSource (SREV) United States $0.084B 0.00
Park City (PCYG) United States $0.074B 42.11
NetSol Technologies (NTWK) United States $0.033B 6.30
Neonode (NEON) Sweden $0.022B 0.00
GSE Systems (GVP) United States $0.020B 6.67
CounterPath (CPAH) Canada $0.012B 0.00
BSQUARE (BSQR) United States $0.012B 0.00